Reflectivity
-20 -20 -20 -20 -20 -20 -20 -20 -20 -20 -20 -20 -20 -20 -20 -20 -20 -20 -20 -20 -20 -20 -20 -20 -20 -20 -20 -20 -20 -20 -20 -20 -20 -20 -20 -20 -20 -20 -20 -20 -20 -20 -20 -20 -20
-20 -20 -20 -20 -20 -20 -20 -20 -20 -20 -20 -20 -20 -20 -20 -20 -20 -20 -20 -20 -20 -20 -20 -20 -20 -20 -20 -20 -20 -20 -20 -20 -20 -20 -20 -20 -20 -20 -20 -20 -20 -20 -20 -20 -20
-20 -20 -20 -20 -20 -20 -20 -20 -20 -20 -20 -20 -20 -20 -20 -20 -20 -20 -20 -20 -20 -20 -20 -20 -20 -20 -20 -20 -20 -20 -20 -20 -20 -20 -20 -20 -20 -20 -20 -20 -20 -20 -20 -20 -20
-20 -20 -20 -20 -20 -20 -20 -20 -20 -20 -20 -20 -20 -20 -20 -20 -20 -20 -20 -20 -20 -20 -20 -20 -20 -20 -20 -20 -20 -20 -20 -20 -20 -20 -20 -20 -20 -20 -20 -20 -20 -20 -20 -20 -20
-20 -20 -20 -20 -20 -20 -20 -20 -20 -20 -20 -20 -20 -20 -20 -20 -20 -20 -20 -20 -20 -20 -20 -20 -20 -20 -20 -20 -20 -20 -20 -20 -20 -20 -20 -20 -20 -20 -20 -20 -20 -20 -20 -20 -20
-20 -20 -20 -20 -20 -20 -20 -20 -20 -20 -20 -20 -20 -20 -20 -20 -20 -20 -20 -20 -20 -20 -20 -20 -20 -20 -20 -20 -20 -20 -20 -20 -20 -20 -20 -20 -20 -20 -20 -20 -20 -20 -20 -20 -20
-20 -20 -20 -20 -20 -20 -20 -20 -20 -20 -20 -20 -20 -20 -20 -20 -20 -20 -20 -20 -20 -20 -20 -20 -20 -20 -20 -20 -20 -20 -20 -20 -20 -20 -20 -20 -20 -20 -20 -20 -20 -20 -20 -20 -20
-20 -20 -20 -20 -20 -20 -20 -20 -20 -20 -20 -20 -20 -20 -20 -20 -20 -20 -20 -20 -20 -20 -20 -20 -20 -20 -20 -20 -20 -20 -20 -20 -20 -20 -20 -20 -20 -20 -20 -20 -20 -20 -20 -20 -20
-20 -20 -20 -20 -20 -20 -20 -20 -20 -20 -20 -20 -20 -20 -20 -20 -20 -20 -20 -20 -20 -20 -20 -20 -20 -20 -20 -20 -20 -20 -20 -20 -20 -20 -20 -20 -20 -20 -20 -20 -20 -20 -20 -20 -20
-20 -20 -20 -20 -20 -20 -20 -20 -20 -20 -20 -20 -20 -20 -20 -20 -20 -20 -20 -20 -20 -20 -20 -20 -20 -20 -20 -20 -20 -20 -20 -20 -20 -20 -20 -20 -20 -20 -20 -20 -20 -20 -20 -20 -20
-20 -20 -20 -20 -20 -20 -20 -20 -20 -20 -20 -20 -20 -20 -20 -20 -20 -20 -20 -20 -20 -20 -20 -20 -20 -20 -20 -20 -20 -20 -20 -20 -20 -20 -20 -20 -20 -20 -20 -20 -20 -20 -20 -20 -20
-20 -20 -20 -20 -20 -20 -20 -20 -20 -20 -20 -20 -20 -20 -20 -20 -20 -20 -20 -20 -20 -20 -20 -20 -20 -20 -20 -20 -20 -20 -20 -20 -20 -20 -20 -20 -20 -20 -20 -20 -20 -20 -20 -20 -20
-20 -20 -20 -20 -20 -20 -20 -20 -20 -20 -20 -20 -20 -20 -20 -20 -20 -20 -20 -20 -20 -20 -20 -20 -20 -20 -20 -20 -20 -20 -20 -20 -20 -20 -20 -20 -20 -20 -20 -20 -20 -20 -20 -20 -20
-20 -20 -20 -20 -20 -20 -20 -20 -20 -20 -20 -20 -20 -20 -20 -20 -20 -20 -20 -20 -20 -20 -20 -20 -20 -20 -20 -20 -20 -20 -20 -20 -20 -20 -20 -20 -20 -20 -20 -20 -20 -20 -20 -20 -20
-20 -20 -20 -20 -20 -20 -20 -20 -20 -20 -20 -20 -20 -20 -20 -20 -20 -20 -20 -20 -20 -20 -20 -20 -20 -20 -20 -20 -20 -20 -20 -20 -20 -20 -20 -20 -20 -20 -20 -20 -20 -20 -20 -20 -20
-20 -20 -20 -20 -20 -20 -20 -20 -20 -20 -20 -20 -20 -20 -20 -20 -20 -20 -20 -20 -20 -20 -20 -20 -20 -20 -20 -20 -20 -20 -20 -20 -20 -20 -20 -20 -20 -20 -20 -20 -20 -20 -20 -20 -20
-20 -20 -20 -20 -20 -20 -20 -20 -20 -20 -20 -20 -20 -20 -20 -20 -20 -20 -20 -20 -20 -20 -20 -20 -20 -20 -20 -20 -20 -20 -20 -20 -20 -20 -20 -20 -20 -20 -20 -20 -20 -20 -20 -20 -20
-20 -20 -20 -20 -20 -20 -20 -20 -20 -20 -20 -20 -20 -20 -20 -20 -20 -20 -20 -20 -20 -20 -20 -20 -20 -20 -20 -20 -20 -20 -20 -20 -20 -20 -20 -20 -20 -20 -20 -20 -20 -20 -20 -20 -20
-20 -20 -20 -20 -20 -20 -20 -20 -20 -20 -20 -20 -20 -20 -20 -20 -20 -20 -20 -20 -20 -20 -20 -20 -20 -20 -20 -20 -20 -20 -20 -20 -20 -20 -20 -20 -20 -20 -20 -20 -20 -20 -20 -20 -20
-20 -20 -20 -20 -20 -20 -20 -20 -20 -20 -20 -20 -20 -20 -20 -20 -20 -20 -20 -20 -20 -20 -20 -20 -20 -20 -20 -20 -20 -20 -20 -20 -20 -20 -20 -20 -20 -20 -20 -20 -20 -20 -20 -20 -20
-20 -20 -20 -20 -20 -20 -20 -20 -20 -20 -20 -20 -20 -20 -20 -20 -20 -20 -20 -20 -20 -20 -20 -20 -20 -20 -20 -20 -20 -20 -20 -20 -20 -20 -20 -20 -20 -20 -20 -20 -20 -20 -20 -20 -20
-20 -20 -20 -20 -20 -20 -20 -20 -20 -20 -20 -20 -20 -20 -20 -20 -20 -20 -20 -20 -20 -20 -20 -20 -20 -20 -20 -20 -20 -20 -20 -20 -20 -20 -20 -20 -20 -20 -20 -20 -20 -20 -20 -20 -20
-20 -20 -20 -20 -20 -20 -20 -20 -20 -20 -20 -20 -20 -20 -20 -20 -20 -20 -20 -20 -20 -20 -20 -20 -20 -20 -20 -20 -20 -20 -20 -20 -20 -20 -20 -20 -20 -20 -20 -20 -20 -20 -20 -20 -20
-20 -20 -20 -20 -20 -20 -20 -20 -20 -20 -20 -20 -20 -20 -20 -20 -20 -20 -20 -20 -20 -20 -20 -18 -20 -20 -20 -20 -20 -20 -20 -20 -20 -20 -20 -20 -20 -20 -20 -20 -20 -20 -20 -20 -20
-20 -20 -20 -20 -20 -20 -20 -20 -20 -20 -20 -20 -20 -20 -20 -20 -20 -20 -20 -20 -20 -20 -15 -18 -14 -20 -20 -20 -20 -19 -20 -20 -20 -20 -20 -20 -20 -20 -20 -20 -20 -20 -20 -20 -20
-20 -20 -14 -20 -20 -20 -20 -20 -20 -20 -20 -20 -20 -20 -20 -20 -20 -20 -16 -20 -20 -20 -4 -8 -20 -20 -20 -20 -20 -20 -20 -20 -20 -20 -20 -20 -20 -20 -20 -20 -20 -20 -20 -20 -20
-20 -20 -20 -20 -20 -20 -20 -20 -20 -20 -20 -20 -20 -20 -20 -20 -20 -20 -12 -1 23 15 2 7 -20 -20 -20 -20 -20 -20 -20 -20 -20 -20 -20 -20 -20 -20 -20 -20 -20 -20 -20 -20 -20
Wind_Speed
7 8 9 9 10 10 11 12 12 12 13 13 13 12 9 9 6 6 8 8 12 20 16 8 0 5 4 5 5 3 6 3 6 6 3 3 3 0 1 3 2 4 3 2 6
8 8 9 9 10 11 12 12 12 13 13 13 12 11 8 6 2 8 5 19 19 17 6 6 5 5 5 5 5 6 4 4 1 1 3 4 2 4 2 2 3 2 4 4 6
9 10 10 10 10 11 11 12 12 13 13 13 12 11 8 4 2 5 16 22 20 12 3 1 1 3 6 5 6 4 4 3 2 2 2 4 1 1 3 5 8 7 7 7 5
10 10 10 10 11 11 12 13 13 13 13 13 12 10 8 1 2 4 19 23 18 8 4 1 4 5 5 5 3 7 4 2 2 2 2 2 1 3 6 4 2 6 9 7 8
10 10 10 11 11 12 12 13 14 14 13 12 11 10 0 8 3 6 18 16 6 5 6 3 6 3 5 4 3 5 2 4 2 2 1 1 4 5 8 8 3 7 8 9 8
11 11 11 11 11 12 12 13 13 12 11 11 11 6 4 7 3 8 9 8 6 6 7 8 4 3 7 4 5 3 4 3 2 2 2 2 2 2 1 4 7 6 7 8 8
12 12 12 12 12 12 12 13 12 10 10 10 9 2 8 2 3 7 8 3 5 3 4 3 1 4 4 4 4 5 3 2 5 5 2 3 2 6 4 4 9 8 7 7 7
13 13 12 12 12 12 12 12 11 10 9 6 7 2 3 1 1 5 8 2 6 4 3 2 5 8 6 2 5 4 5 5 2 8 3 3 7 2 3 5 6 9 8 7 6
14 14 13 13 12 12 11 13 10 8 7 6 1 2 2 1 5 5 5 5 8 2 3 3 7 6 7 4 5 8 1 3 7 4 4 6 9 4 3 5 7 8 8 7 6
15 15 14 13 12 12 11 5 6 4 5 1 3 4 7 6 6 7 4 4 4 4 4 10 7 6 7 8 1 4 4 5 5 6 6 5 14 11 6 8 10 8 7 7 6
15 15 14 14 13 12 4 3 5 5 13 5 1 0 5 9 3 7 5 6 4 11 6 6 11 4 3 3 1 0 1 4 5 2 6 2 10 16 9 2 7 8 6 8 8
16 15 15 13 11 6 4 7 1 2 6 2 1 2 1 2 6 10 9 7 8 5 6 7 4 2 3 1 1 0 2 5 7 1 2 6 15 6 5 2 4 8 8 9 4
16 15 14 12 3 7 6 4 1 1 5 3 2 2 4 4 3 9 8 3 6 7 8 7 0 3 1 3 5 1 2 2 5 9 1 7 7 4 2 4 3 2 4 4 8
16 15 15 10 6 0 4 3 3 1 6 8 6 4 3 1 4 2 3 2 7 3 3 6 2 2 1 2 2 4 2 1 5 6 3 5 5 4 2 2 4 4 1 1 3
16 14 11 10 6 4 1 3 3 2 5 4 6 1 5 6 4 6 3 5 4 3 2 2 4 4 3 2 1 5 2 2 2 3 4 4 5 7 0 3 3 4 6 5 4
14 14 6 5 4 0 2 3 2 10 5 4 3 8 5 6 7 7 6 9 0 3 5 3 1 2 1 3 2 4 1 1 3 3 4 4 4 6 4 4 4 3 6 6 6
9 9 6 1 1 2 1 3 8 8 3 4 4 5 0 5 6 8 7 10 4 6 8 4 1 1 3 3 1 7 6 6 7 6 6 2 3 9 2 2 7 8 6 5 7
6 5 5 3 2 1 2 7 2 2 1 1 2 3 2 4 3 6 3 4 4 3 4 4 8 3 5 4 3 3 5 6 5 3 6 2 7 6 3 4 6 7 7 4 4
3 3 3 5 2 2 6 6 5 4 1 3 3 2 3 2 0 4 4 3 2 1 5 3 6 2 4 2 3 0 2 3 6 0 3 4 8 6 2 3 5 5 3 5 6
2 3 2 5 2 4 7 4 3 0 1 1 1 1 2 4 4 5 0 4 2 4 2 3 5 2 1 1 3 4 1 3 4 3 6 5 6 7 8 10 7 5 6 6 5
4 4 3 3 3 7 5 4 2 1 1 1 1 2 2 2 1 2 2 2 3 4 3 4 4 3 1 5 6 3 3 4 3 4 5 4 9 7 13 18 13 9 5 7 8
3 3 2 2 7 2 3 1 1 1 1 1 2 3 2 0 2 2 3 4 6 7 4 3 5 3 9 2 2 3 5 5 4 3 2 2 11 1 5 6 8 7 8 8 7
3 2 3 3 4 2 2 0 1 2 2 2 2 1 3 2 3 3 2 1 5 5 6 5 2 5 7 3 2 3 4 4 2 2 10 6 9 2 2 4 6 7 8 8 6
4 4 6 7 1 6 2 1 1 0 1 1 1 1 1 2 4 4 3 3 4 2 3 5 1 8 11 12 5 3 6 5 5 5 8 16 15 17 9 4 8 10 9 8 8
5 1 2 3 4 2 2 1 1 3 1 2 1 5 6 2 3 6 3 2 2 5 3 4 6 5 14 17 7 11 19 11 16 20 12 17 10 19 9 8 8 7 7 9 11
3 3 1 1 2 2 0 4 6 2 5 3 4 3 7 7 11 14 6 5 6 2 6 2 4 1 5 14 5 7 20 21 17 17 20 24 27 25 24 4 8 12 7 10 10
1 1 5 2 1 3 4 3 5 4 5 5 9 4 6 16 5 4 4 2 3 10 9 6 4 3 7 1 6 12 14 7 5 4 8 10 16 1 4 3 6 8 8 11 8
Wind_Direction
353 353 350 345 341 340 342 342 347 349 353 353 350 353 351 345 351 36 41 316 322 322 332 294 328 359 47 65 36 117 67 160 189 165 155 174 145 200 114 132 192 186 118 310 119
349 346 343 342 339 339 336 339 345 347 347 345 344 346 346 349 85 55 333 340 332 333 348 12 4 357 52 29 19 66 93 177 55 66 155 163 146 159 150 205 243 151 64 95 113
346 343 339 336 336 332 331 334 339 342 341 340 338 336 338 332 95 326 341 341 335 343 219 269 266 48 63 35 0 13 109 151 49 76 55 131 124 306 178 231 220 196 164 158 155
341 337 334 332 330 329 330 330 332 334 338 340 335 324 327 326 55 291 341 337 335 336 139 346 23 55 70 61 349 86 55 46 128 30 62 113 319 265 196 231 293 187 156 157 179
340 338 334 332 330 328 327 326 326 328 332 335 332 330 333 41 344 315 338 331 349 21 50 37 55 92 94 93 78 71 109 54 78 52 39 101 243 245 249 239 123 129 138 174 194
342 339 335 333 331 327 324 323 322 321 326 331 335 327 62 67 296 339 340 339 12 21 14 32 86 103 92 66 70 104 96 110 54 28 339 332 255 22 256 137 165 155 178 187 195
345 341 337 332 327 323 321 320 321 320 323 327 340 41 63 136 354 333 352 323 354 18 38 34 29 77 132 94 152 138 84 91 19 349 328 347 185 224 229 133 197 203 205 214 219
346 344 337 331 326 323 321 315 311 308 311 316 333 69 99 280 348 360 339 333 359 6 67 23 70 95 53 104 42 43 56 16 16 356 325 36 274 175 109 148 197 189 200 213 225
346 343 337 335 328 322 315 309 300 303 298 303 59 48 11 338 25 324 33 339 305 333 44 62 64 75 30 44 29 11 51 351 321 38 323 42 276 227 147 200 213 195 201 213 235
343 339 337 337 327 319 306 282 312 19 357 67 74 38 22 316 307 333 337 358 5 321 25 37 48 62 26 33 187 321 342 319 256 340 354 289 267 291 281 206 215 206 214 220 231
342 339 340 337 332 338 13 38 22 353 41 80 290 262 324 301 273 357 353 340 26 55 36 16 60 48 325 4 323 246 264 271 262 63 335 292 287 294 305 203 212 224 223 228 231
345 341 339 335 324 4 61 74 81 158 85 7 203 348 269 330 357 347 5 55 46 45 334 31 58 283 281 306 304 229 304 288 286 346 17 347 303 288 305 333 194 194 210 221 225
347 340 337 333 311 39 73 95 331 311 87 9 48 15 316 26 72 321 20 17 62 49 18 101 116 314 306 39 11 251 195 336 250 324 231 321 312 336 8 13 47 163 210 216 225
346 342 343 332 51 281 49 320 333 308 73 326 349 5 349 59 46 314 15 75 35 96 74 84 338 347 342 58 10 320 72 360 300 21 272 20 267 277 319 40 45 40 96 128 158
344 343 354 41 143 61 235 318 312 38 44 307 323 264 333 66 310 5 356 29 69 46 95 294 9 16 35 352 70 254 340 273 116 102 41 324 79 255 298 113 115 87 90 94 119
342 344 7 22 53 81 316 339 37 45 262 4 330 349 15 20 358 313 29 36 130 107 42 100 113 61 269 287 233 328 254 139 61 98 21 246 105 280 180 175 129 70 73 82 76
347 353 45 43 85 314 27 50 40 114 358 331 333 12 352 338 356 28 29 12 53 39 10 343 74 77 20 330 158 35 39 336 353 5 225 206 18 242 301 37 143 134 121 76 42
353 33 18 60 339 14 60 53 94 148 236 354 323 311 35 1 30 10 67 40 53 50 79 63 328 23 0 104 193 24 128 146 257 274 290 260 251 270 309 94 120 120 106 83 6
46 1 38 336 349 39 72 60 205 195 168 343 314 52 333 33 216 49 50 180 226 114 120 50 279 108 47 94 103 262 39 182 102 149 37 255 293 319 65 85 109 117 35 329 315
71 51 342 319 7 61 72 198 187 3 15 40 337 71 311 311 9 34 196 228 206 190 196 195 316 86 108 108 52 109 174 37 9 339 294 285 274 235 206 200 197 184 246 272 273
53 48 279 349 44 48 118 208 195 165 137 49 199 272 215 295 279 291 236 213 195 164 99 130 110 275 128 190 180 31 4 29 123 131 198 292 260 210 198 204 198 217 292 301 307
71 27 313 61 47 35 87 358 60 143 33 8 85 135 204 77 277 269 245 214 155 152 142 217 147 268 246 69 145 130 196 149 124 250 206 216 268 155 222 220 162 239 273 274 238
64 281 330 74 92 19 276 75 170 162 220 190 232 204 200 246 340 219 251 96 157 151 172 185 260 302 301 7 28 174 213 143 116 95 205 234 260 316 327 271 237 266 294 306 277
61 15 338 45 44 121 158 217 247 260 264 183 157 91 146 252 214 284 252 196 192 211 158 154 234 203 258 259 141 224 206 217 202 221 252 227 267 280 281 238 266 287 293 279 276
30 257 176 318 348 64 78 289 227 240 254 201 214 223 173 233 247 229 230 168 202 209 126 161 229 226 254 273 259 266 260 215 209 239 240 267 246 261 254 262 243 251 283 294 314
93 110 19 238 316 324 82 226 200 212 148 219 215 211 185 200 202 268 210 193 206 123 168 179 248 174 248 260 251 251 259 248 231 242 257 264 274 269 272 260 280 270 275 283 277
285 354 103 294 44 86 232 231 229 147 238 212 205 181 205 233 240 270 263 268 191 160 189 181 202 176 267 360 305 274 254 198 174 237 169 198 233 211 286 269 260 277 266 270 275